dete.gr alexa rank chart, dete.gr alexa rank daily changes

dete.gr alexa rank chart, dete.gr alexa rank daily changes

dete.gr
Actual rank:
104 359

RANK HISTORY

Date Rank Diff
2017/06/23 104 359 -262
2017/06/22 104 621 -472
2017/06/21 105 093 -666
2017/06/20 105 759 -1 932
2017/06/19 107 691 +1 235
2017/06/18 106 456 +996
2017/06/17 105 460 +2 349
2017/06/16 103 111 +284
2017/06/15 102 827 +887
2017/06/14 101 940 +1 263
2017/06/13 100 677 -336
2017/06/12 101 013 -317
2017/06/11 101 330 +1 293
2017/06/10 100 037 -414
2017/06/09 100 451 +146
2017/06/08 100 305 +1 110
2017/06/07 99 195 +353
2017/06/06 98 842 +758
2017/06/05 98 084 -74
2017/06/04 98 158 -153
2017/06/03 98 311 +253
2017/06/02 98 058 -525
2017/06/01 98 583 -926
2017/05/31 99 509 -589
2017/05/30 100 098 -127
2017/05/29 100 225 +182
2017/05/28 100 043 -198
2017/05/27 100 241 -449
2017/05/26 100 690 +687
2017/05/25 100 003 -1 245
2017/05/24 101 248 +1 329
2017/05/23 99 919 +434
2017/05/22 99 485 -260
2017/05/21 99 745 -599
2017/05/20 100 344 +1 466
2017/05/19 98 878 +318
2017/05/18 98 560 -882
2017/05/17 99 442 -969
2017/05/16 100 411 +528
2017/05/15 99 883 -708
2017/05/14 100 591 -733
2017/05/13 101 324 +325
2017/05/12 100 999 +576
2017/05/11 100 423 -1 503
2017/05/10 101 926 +1 262
2017/05/09 100 664 +374
2017/05/08 100 290 -863
2017/05/07 101 153 -279
2017/05/06 101 432 -1 092
2017/05/05 102 524 +1 061
2017/05/04 101 463 +188
2017/05/03 101 275 +331
2017/05/02 100 944 +558
2017/05/01 100 386 -914
2017/04/30 101 300 +334
2017/04/29 100 966 +400
2017/04/28 100 566 +1 297
2017/04/27 99 269 +728
2017/04/26 98 541 -1 265
2017/04/25 99 806 +738
2017/04/24 99 068

WIDGET FOR YOUR SITE

DOMAINS WITH THE NEAREST RANK

Domain Rank
sharpschool.net 104 354
codacy.com 104 355
south-park-tv.eu 104 356
stileproject.com 104 357
hoststar.ch 104 358
dete.gr 104 359
audiokinetic.com 104 360
unjs.com 104 361
klimg.com 104 362
daisojapan.com 104 363
qyd9.com 104 364

DOMAINS WITH THE NEAREST RANK BY TLD .gr

Domain Rank
netwix.gr 103 358
cup.gr 103 595
hellenicparliament.gr 103 952
rocking.gr 104 099
data-media.gr 104 169
dete.gr 104 359
teilar.gr 104 404
olaprasina1908.gr 104 581
pillowfights.gr 104 822
palo.gr 105 680
teniesonline.gr 105 791